CAPE
411 459 604 1631 1059 211 513 785 653 1105 637 419 281 277 342 327 275 243 682 791 616 774 1178 1756 1980 1974 2027 2315 2443 2796 2900 2932 2892 2760 2499 2571 2619 2157 1759 1972 1723 2451 2259
2215 866 1186 844 668 1565 623 1242 1080 1300 693 256 168 218 269 199 330 265 417 488 1247 1187 1146 1449 1766 2041 2214 2381 2490 2828 3326 3484 2903 2683 2567 2762 2586 2361 2221 1945 1530 2045 2161
1484 1171 580 2373 856 864 1090 1726 1312 1021 727 146 154 134 246 316 487 573 612 463 1043 1750 1814 1921 2100 2379 2037 2106 2190 2494 2663 2987 2194 2477 2456 2854 2708 2452 2306 2283 1583 1788 2053
1555 2101 895 1896 698 1250 720 537 533 574 138 68 84 96 126 158 243 218 365 778 869 982 1774 2364 2547 2646 2082 1789 1838 2213 2469 2326 2367 2387 2481 2624 2543 2434 2365 1852 1661 1835 1943
1377 2160 641 1666 1777 835 689 831 648 570 345 105 66 61 82 101 285 315 347 921 1159 1149 1596 2134 2485 2141 1532 1642 1816 1999 2139 1822 1833 1915 2589 2267 2297 2078 1451 1829 1953 1904 1842
1133 1643 1015 2379 1972 784 952 2017 2246 1227 1337 650 507 269 146 208 335 410 597 756 798 1107 1060 1069 1440 1314 1807 1502 877 1027 980 972 1142 1936 2369 944 857 1321 1743 1946 1806 1754 1691
1130 1450 1174 1818 1269 1223 1963 1279 1581 1645 831 725 660 564 324 270 327 512 617 567 572 728 786 843 1258 1096 1452 1037 959 533 531 811 1059 2217 1479 724 1122 1464 1682 1753 1461 1423 1457
1307 1330 2434 873 1049 997 1583 1421 1758 1690 613 848 706 326 432 120 51 609 378 417 679 495 658 940 1288 1381 1732 1514 1822 1159 658 993 1414 2021 856 999 1230 1352 1630 1650 1629 1551 1388
1489 1630 1864 1888 1952 1744 709 1682 1439 1753 998 868 1819 847 444 572 411 1210 927 427 513 449 408 296 923 1057 1620 1794 1698 1157 784 876 1298 1412 841 996 1110 1388 1546 1476 1370 1291 1351
1772 1560 1750 1784 1969 1916 2249 1306 1254 1677 1883 1158 895 730 1480 1213 458 316 467 584 593 354 545 175 1065 1283 1369 1585 1358 1263 1201 1043 1389 532 638 864 903 1053 1046 1002 971 977 983
1584 1270 1411 1768 1783 1909 2446 2322 1789 2310 1776 1080 775 513 846 830 1356 1020 434 1193 296 141 60 170 212 1798 1309 1190 1591 1108 1006 491 218 199 192 366 511 475 503 511 466 462 527
1643 2001 1643 1728 2328 2224 2026 1914 2116 2022 2272 2361 1718 1250 652 786 890 1328 992 326 103 153 126 87 187 238 1480 842 1223 1375 856 575 87 62 68 51 48 50 66 79 95 112 109
1678 3075 3300 3162 1972 2541 2219 2053 2258 2651 2400 2147 2306 1310 1110 636 674 547 311 201 214 183 780 161 147 1020 1299 1555 1305 938 901 442 120 91 75 59 45 10 0 0 0 1 2
1431 2117 2624 2029 2064 2031 2085 2162 1792 1914 2515 1652 1897 2559 1546 821 361 385 366 575 325 331 1546 2674 1559 1786 1919 1683 1130 657 874 603 13 21 26 25 14 2 0 0 0 0 0
1707 1413 2301 2558 1778 2140 1824 3121 1894 2591 2123 1947 2172 2711 2086 1002 431 282 518 679 887 332 1383 1718 1841 1596 1289 1421 1265 1170 1328 654 28 0 0 0 0 0 0 0 0 0 0
2715 2039 2139 1555 1706 2101 2799 3159 2129 2533 2936 1667 1152 2900 2875 963 741 485 505 640 528 1837 1397 559 2427 1244 1765 1309 833 1162 1133 495 270 54 0 0 0 0 0 0 0 0 0
2535 2512 2836 2350 2412 2306 2855 2896 2483 2623 1785 2331 2215 2659 2599 2163 1556 1027 701 1821 1245 1820 1848 1070 1905 2299 1967 1960 1911 2045 1292 1082 399 87 3 0 0 0 0 0 0 0 0
2897 3424 2966 2541 2433 2437 2527 2643 2119 2076 2193 1985 2058 2373 2009 1838 2690 2662 1941 3051 2127 2217 2376 1876 2651 1510 1861 1717 1830 1660 1260 599 433 113 0 0 0 0 0 0 0 0 0
3313 2324 3055 3387 2667 2553 2950 2727 2505 2480 2022 2346 2312 2434 2049 2518 2922 1971 2235 3000 2845 2201 2152 1416 1578 1985 2331 2168 1897 1836 1406 1863 650 103 0 0 0 0 0 0 0 0 0
3550 3415 2912 3065 2978 2880 2713 2460 2702 2684 2281 2067 2888 1900 1855 2507 2715 2711 2717 2867 2500 2336 2151 1531 1420 1291 1442 1680 1266 1217 1426 1883 1258 397 28 1 0 0 0 0 0 0 0
2887 3059 3565 2950 2858 2440 1803 2842 3032 2231 2681 2355 2725 2067 2491 2460 1142 1396 2766 1976 1781 1726 2244 1364 1486 1043 1881 1369 1062 1093 802 1395 1202 853 988 15 7 8 0 0 0 0 0
3354 3576 3350 3100 2995 1764 986 939 1639 2377 2850 2805 2573 2430 1957 1168 828 349 217 580 677 1673 1470 1056 1333 1034 1163 1099 718 171 276 381 450 43 134 25 12 6 0 0 0 0 0
3076 3174 3185 3042 3205 3100 1392 930 730 1130 1487 2619 2682 2369 1813 1859 1181 392 209 175 95 8 1 239 648 692 368 32 7 3 0 1 1 0 17 29 0 0 0 0 0 0 0
3191 3248 2910 3131 3203 3174 1569 1104 926 1817 1992 2325 2218 2162 2660 1760 1262 1468 481 384 329 184 36 21 39 4 0 0 0 0 0 7 0 0 0 14 1 9 0 0 0 0 0
2637 2700 2921 3006 3022 3200 1607 1261 1118 1766 1850 2374 1868 1753 2049 1720 759 489 990 848 300 67 44 2 0 1 5 8 10 12 8 7 1 0 0 0 12 1 8 0 0 0 0
1003 1367 2655 2695 2314 2964 1988 1282 1069 1761 1851 1743 2090 1302 1013 863 136 199 622 707 257 42 0 0 0 0 2 0 0 0 0 0 12 66 0 0 0 0 0 43 5 0 0
CIN
-1 -1 -0 -5 -1 -0 -0 -1 -2 -0 -2 -0 -8 -14 -2 -13 -21 -9 -39 -206 -219 -183 -139 -87 -56 -38 -23 -4 -1 -0 -0 -0 -0 -1 -7 -3 -3 -10 -14 -20 -27 -3 -5
-5 -0 -0 -1 -0 -3 -1 -1 -0 -1 -0 -9 -42 -36 -19 -30 -51 -45 -7 -119 -184 -173 -161 -130 -85 -49 -21 -2 -2 -0 -0 -0 -0 -2 -9 -8 -12 -11 -16 -16 -30 -12 -1
-0 -2 -1 -1 -1 -7 -5 -6 -1 -3 -1 -4 -14 -27 -10 -15 -16 -24 -10 -1 -61 -182 -153 -130 -96 -58 -47 -24 -9 -0 -1 -0 -4 -4 -14 -4 -12 -11 -13 -10 -35 -27 -2
-1 -10 -2 -6 -1 -1 -1 -2 -1 -2 -0 -10 -18 -7 -13 -19 -29 -25 -20 -5 -1 -0 -152 -132 -93 -64 -65 -56 -35 -7 -2 -3 -3 -9 -10 -19 -4 -5 -11 -39 -48 -41 -23
-0 -4 -0 -5 -3 -0 -1 -92 -2 -3 -3 -0 -15 -28 -22 -11 -9 -5 -10 -0 -1 -1 -1 -153 -116 -118 -119 -87 -64 -34 -19 -35 -35 -41 -11 -10 -5 -14 -49 -48 -51 -54 -49
-0 -3 -0 -1 -6 -0 -1 -11 -5 -1 -3 -0 -0 -2 -1 -1 -0 -2 -0 -0 -0 -1 -0 -5 -22 -17 -154 -117 -142 -125 -114 -107 -83 -43 -7 -51 -64 -41 -34 -43 -67 -73 -64
-1 -6 -1 -1 -2 -3 -6 -5 -1 -0 -1 -0 -2 -5 -1 -10 -0 -0 -1 -1 -2 -1 -0 -1 -15 -2 -24 -145 -141 -158 -163 -121 -95 -34 -34 -56 -39 -33 -35 -48 -71 -80 -76
-0 -0 -0 -0 -1 -1 -3 -0 -7 -1 -1 -1 -0 -1 -5 -70 -31 -12 -4 -3 -1 -1 -0 -1 -13 -16 -10 -0 -36 -121 -148 -112 -80 -38 -54 -52 -29 -31 -37 -44 -52 -62 -61
-0 -0 -0 -2 -0 -1 -0 -1 -3 -1 -1 -1 -7 -1 -0 -36 -21 -1 -5 -1 -12 -0 -2 -1 -1 -10 -11 -0 -38 -33 -134 -132 -90 -45 -54 -47 -49 -34 -26 -41 -56 -63 -54
-0 -0 -0 -0 -0 -1 -1 -0 -2 -4 -3 -0 -0 -0 -10 -10 -5 -3 -0 -81 -2 -2 -2 -1 -1 -6 -9 -1 -50 -111 -101 -115 -71 -85 -65 -47 -59 -49 -46 -45 -48 -56 -61
-0 -0 -0 -0 -0 -0 -0 -2 -0 -2 -1 -2 -1 -0 -0 -2 -2 -3 -1 -5 -0 -12 -1 -1 -14 -2 -2 -7 -4 -21 -101 -138 -139 -120 -99 -74 -66 -69 -71 -78 -78 -64 -62
-0 -1 -1 -0 -0 -0 -0 -0 -0 -0 -3 -1 -0 -0 -0 -1 -23 -46 -28 -0 -0 -1 -2 -1 -2 -0 -2 -0 -42 -97 -96 -124 -38 -39 -58 -96 -114 -116 -148 -150 -159 -151 -135
-10 -7 -0 -0 -0 -0 -0 -0 -0 -0 -0 -0 -0 -1 -0 -0 -0 -0 -0 -1 -0 -1 -7 -1 -1 -3 -4 -2 -60 -62 -61 -43 -71 -82 -121 -58 -50 -49 -0 -0 -0 -0 -0
-32 -49 -0 -0 -0 -0 -0 -0 -0 -0 -0 -0 -1 -0 -0 -0 -0 -1 -0 -0 -0 -1 -8 -10 -24 -41 -14 -36 -68 -88 -30 -24 -146 -122 -92 -86 -86 -30 -0 -0 -0 -0 -0
-2 -39 -16 -11 -0 -0 -0 -2 -0 -0 -0 -1 -0 -0 -0 -0 -0 -2 -0 -4 -1 -1 -16 -19 -13 -21 -47 -18 -77 -0 -7 -17 -49 -0 -0 -0 -0 -0 -0 -0 -0 -0 -0
-7 -2 -0 -0 -0 -0 -0 -0 -0 -0 -0 -0 -0 -0 -0 -0 -0 -0 -0 -1 -0 -12 -9 -65 -10 -14 -1 -0 -31 -0 -31 -7 -13 -27 -0 -0 -0 -0 -0 -0 -0 -0 -0
-0 -0 -0 -0 -0 -0 -0 -0 -0 -0 -2 -0 -0 -0 -0 -0 -0 -0 -0 -15 -6 -9 -2 -3 -20 -13 -6 -4 -1 -0 -9 -12 -3 -27 -6 -0 -0 -0 -0 -0 -0 -0 -0
-0 -0 -0 -0 -0 -0 -0 -0 -0 -0 -0 -0 -0 -0 -0 -0 -0 -0 -0 -6 -0 -4 -3 -1 -4 -1 -5 -1 -0 -0 -0 -4 -4 -23 -0 -0 -0 -0 -0 -0 -0 -0 -0
-0 -0 -0 -0 -0 -0 -0 -0 -0 -0 -0 -0 -2 -2 -0 -0 -0 -0 -0 -2 -1 -1 -3 -3 -24 -10 -5 -8 -8 -0 -4 -4 -6 -12 -0 -0 -0 -0 -0 -0 -0 -0 -0
-0 -0 -0 -0 -0 -0 -0 -0 -0 -0 -0 -0 -0 -0 -0 -0 -0 -0 -0 -0 -0 -0 -4 -22 -2 -9 -3 -1 -2 -1 -0 -0 -1 -0 -8 -0 -0 -0 -0 -0 -0 -0 -0
-0 -0 -0 -0 -0 -0 -0 -0 -0 -12 -0 -0 -0 -0 -0 -1 -8 -18 -1 -3 -0 -0 -2 -30 -2 -1 -0 -0 -0 -0 -0 -0 -0 -0 -0 -0 -0 -10 -0 -0 -0 -0 -0
-0 -0 -0 -0 -0 -0 -1 -2 -14 -0 -0 -0 -0 -0 -0 -8 -19 -46 -65 -37 -29 -0 -0 -0 -0 -0 -0 -0 -0 -0 -1 -0 -0 -1 -2 -0 -2 -1 -0 -0 -0 -0 -0
-0 -0 -0 -0 -0 -0 -12 -5 -4 -0 -0 -0 -0 -0 -0 -2 -12 -38 -66 -49 -47 -82 -26 -34 -0 -2 -0 -49 -39 -28 -0 -1 -1 -0 -4 -1 -0 -0 -0 -0 -0 -0 -0
-0 -0 -0 -0 -0 -0 -13 -22 -13 -1 -0 -0 -0 -0 -0 -0 -3 -0 -12 -13 -1 -27 -60 -35 -49 -30 -28 -0 -0 -0 -0 -1 -0 -0 -0 -1 -2 -0 -0 -0 -0 -0 -0
-0 -0 -0 -0 -0 -0 -5 -21 -17 -0 -0 -0 -0 -0 -0 -0 -9 -23 -1 -0 -0 -47 -37 -12 -0 -1 -0 -0 -0 -0 -7 -3 -0 -0 -0 -0 -0 -0 -2 -0 -0 -0 -0
-15 -0 -0 -0 -0 -0 -2 -5 -17 -0 -0 -0 -0 -2 -1 -1 -57 -25 -1 -0 -0 -45 -0 -0 -0 -0 -0 -0 -0 -0 -0 -3 -0 -23 -0 -0 -0 -0 -0 -0 -9 -0 -0
Wind_Speed
17 18 19 14 19 18 13 18 16 17 12 14 14 12 16 10 13 15 16 26 28 30 30 23 26 28 30 30 29 27 25 21 18 20 18 18 20 20 20 18 16 16 14
17 14 16 11 13 21 17 17 19 18 18 10 5 11 14 10 13 15 14 23 30 32 34 32 31 30 30 30 28 26 23 21 19 20 21 20 20 21 20 20 21 18 16
19 20 16 17 14 18 18 14 15 10 16 10 4 7 11 10 14 13 18 17 24 33 34 31 29 28 29 29 28 26 24 22 21 20 20 19 18 20 21 21 22 20 18
16 21 14 15 14 18 15 15 14 13 7 nan nan nan 7 12 13 16 20 17 17 15 29 28 28 28 28 27 26 26 24 22 20 17 17 17 18 20 22 23 24 22 20
13 23 17 16 15 16 17 15 9 11 1 5 nan nan nan 15 17 20 13 18 22 17 14 24 26 27 26 24 23 23 23 22 19 16 16 13 16 18 22 25 25 25 24
13 17 16 17 19 14 12 16 14 10 12 7 16 2 11 14 15 17 17 20 19 14 19 10 17 18 26 24 23 22 21 21 19 17 14 14 16 18 20 23 25 25 24
12 15 20 12 18 19 19 12 10 7 10 2 13 12 12 16 18 20 14 10 9 16 10 10 13 11 15 23 24 21 18 19 19 18 16 16 17 19 20 19 22 23 23
12 13 20 18 16 17 8 7 7 11 7 1 8 8 8 9 nan 10 4 8 5 15 12 8 7 11 11 10 14 20 19 19 19 19 18 18 18 18 17 16 16 17 20
12 15 15 20 17 16 10 4 3 4 10 1 1 5 8 5 13 10 12 10 10 10 5 11 13 10 9 12 16 16 16 16 16 16 15 17 17 16 15 12 12 12 12
14 14 15 14 15 17 15 8 5 6 3 5 1 4 2 1 4 6 2 4 13 9 7 6 6 14 11 11 12 13 15 11 11 12 14 14 13 12 11 10 9 10 12
15 15 15 14 14 12 9 11 9 4 4 2 7 4 2 3 9 5 3 6 5 7 nan 3 3 3 9 6 3 9 10 12 12 11 11 11 12 10 9 9 8 7 7
17 16 16 15 13 11 10 8 6 6 5 10 9 9 3 5 5 5 7 1 5 7 7 nan 3 1 1 3 10 14 11 12 nan nan nan nan nan nan nan nan nan 5 4
23 21 17 17 14 11 9 8 8 8 6 6 8 8 7 6 3 3 1 3 2 4 8 10 5 5 4 2 13 8 12 13 12 nan nan nan nan nan nan nan nan nan nan
30 25 19 19 15 13 14 13 12 8 10 10 8 7 10 10 7 4 4 3 4 5 10 5 11 7 5 7 14 14 15 16 nan nan nan nan nan nan nan nan nan nan nan
25 26 22 23 15 15 14 18 12 12 12 12 8 10 10 7 5 5 6 6 9 5 8 8 11 11 9 12 13 9 16 24 nan nan nan nan nan nan nan nan nan nan nan
19 22 22 18 17 15 17 18 15 15 13 14 11 13 12 9 9 6 7 9 7 14 12 7 11 12 12 13 19 10 23 29 28 nan nan nan nan nan nan nan nan nan nan
15 18 21 22 19 17 17 20 16 16 19 14 13 13 13 14 11 8 9 14 12 19 13 9 15 18 15 17 15 15 18 23 30 nan nan nan nan nan nan nan nan nan nan
13 17 20 22 22 20 20 18 14 13 15 14 15 13 12 13 13 11 12 14 14 17 16 14 15 12 23 19 18 18 18 29 30 32 nan nan nan nan nan nan nan nan nan
14 13 16 18 20 22 21 19 17 16 14 14 16 16 15 13 13 15 15 16 18 19 18 20 22 27 26 26 23 20 24 22 29 40 nan nan nan nan nan nan nan nan nan
18 14 14 16 18 20 20 21 20 18 15 14 15 16 16 17 14 18 18 18 20 22 21 24 23 31 24 25 20 21 22 26 29 30 nan nan nan nan nan nan nan nan nan
21 19 16 17 18 18 19 20 19 25 20 18 18 18 18 19 28 28 25 25 26 26 24 22 23 22 22 24 22 23 24 30 33 33 33 nan nan nan nan nan nan nan nan
22 22 19 18 19 19 19 23 23 24 23 23 24 21 22 33 33 37 38 40 37 30 27 28 28 28 28 28 28 29 31 34 35 nan 38 nan nan nan nan nan nan nan nan
22 22 23 23 23 21 23 29 29 25 25 27 30 26 26 30 37 37 41 42 nan nan nan 35 34 36 33 nan nan nan nan nan nan nan nan nan nan nan nan nan nan nan nan
25 25 23 26 25 28 30 32 34 31 28 25 30 31 30 31 36 38 41 39 43 47 nan nan nan nan nan nan nan nan nan nan nan nan nan nan nan nan nan nan nan nan nan
26 23 30 26 26 28 37 36 40 33 33 31 36 35 38 36 45 39 39 44 48 nan nan nan nan nan nan nan nan nan nan nan nan nan nan nan nan nan nan nan nan nan nan
23 25 26 27 28 29 37 34 41 38 37 41 45 46 51 46 47 41 42 47 49 nan nan nan nan nan nan nan nan nan nan nan nan nan nan nan nan nan nan nan nan nan nan
Wind_Direction
161 145 136 137 133 122 128 118 129 131 115 90 109 96 83 76 73 58 27 18 31 39 43 47 54 50 49 52 58 60 63 65 58 52 49 47 48 40 36 37 50 47 41
141 146 120 123 128 141 153 153 152 135 121 118 70 109 80 55 67 64 37 35 33 36 48 66 55 52 55 57 58 61 64 64 61 59 50 47 45 38 43 35 34 42 43
147 143 153 142 164 164 150 144 127 112 107 106 87 53 55 71 37 52 58 56 32 40 43 49 49 51 58 59 60 59 58 57 57 60 59 53 41 36 44 45 42 39 38
146 133 130 164 179 146 155 169 157 148 148 nan nan nan 52 49 49 60 61 65 74 70 40 42 44 47 54 58 57 54 56 54 55 64 55 58 41 35 45 50 43 42 44
143 140 155 187 145 153 162 191 150 137 335 99 nan nan nan 55 40 58 63 65 65 69 92 28 37 38 40 46 46 49 55 59 56 64 63 51 43 44 45 49 47 41 40
155 150 173 177 150 152 164 182 171 164 134 143 117 21 67 66 49 50 58 66 64 71 77 63 41 45 29 32 33 39 48 53 53 61 60 58 48 44 47 46 42 42 42
172 162 160 184 157 166 181 164 123 66 118 129 104 65 33 42 47 46 42 90 77 72 76 64 54 62 20 27 26 29 42 38 45 55 47 49 53 55 53 47 42 40 46
184 168 164 175 176 173 169 150 137 130 95 260 124 148 89 241 nan 97 21 59 76 78 58 9 31 47 56 50 355 20 28 30 40 51 43 44 44 50 54 54 52 47 49
185 171 176 163 184 162 145 166 101 131 129 243 298 136 131 340 51 50 5 6 40 72 66 87 358 356 28 40 17 11 28 33 39 43 38 35 34 32 35 46 63 70 67
186 180 170 171 171 163 180 167 113 147 171 132 21 7 298 142 113 94 21 348 37 40 7 72 2 345 357 46 6 351 12 27 37 41 29 28 30 32 32 29 45 71 84
196 190 190 182 184 175 195 177 181 182 180 172 180 180 327 4 359 41 75 36 17 350 nan 65 355 1 330 1 337 342 355 359 17 16 24 23 17 18 25 20 14 31 66
226 204 205 202 202 192 195 204 209 193 198 210 208 234 195 218 292 324 21 65 51 18 321 nan 19 240 260 302 299 323 346 2 nan nan nan nan nan nan nan nan nan 346 353
208 235 227 228 227 234 204 218 215 201 250 235 246 221 215 240 240 253 304 36 13 22 328 321 303 268 255 314 306 303 318 325 328 nan nan nan nan nan nan nan nan nan nan
219 229 241 235 239 232 255 242 239 258 288 294 271 242 219 210 221 254 305 302 345 10 265 259 274 281 288 311 296 330 315 307 nan nan nan nan nan nan nan nan nan nan nan
218 237 225 242 239 253 252 267 272 285 275 288 278 285 276 245 244 248 272 306 290 328 288 338 303 290 321 298 323 288 312 301 nan nan nan nan nan nan nan nan nan nan nan
236 222 236 244 244 246 262 259 253 260 269 271 278 283 270 248 246 272 298 280 302 289 287 289 298 298 288 275 291 297 300 316 313 nan nan nan nan nan nan nan nan nan nan
235 236 243 230 238 239 249 254 241 232 250 251 252 245 256 257 251 254 259 267 286 282 290 296 304 294 282 289 289 289 311 316 306 nan nan nan nan nan nan nan nan nan nan
258 250 247 245 232 237 247 255 266 249 268 277 276 262 258 262 272 270 248 245 263 279 295 289 289 295 290 287 293 296 304 294 303 302 nan nan nan nan nan nan nan nan nan
257 250 250 247 239 239 256 255 255 250 246 255 276 277 276 260 267 274 279 275 284 289 289 292 295 283 288 281 280 299 291 294 293 302 nan nan nan nan nan nan nan nan nan
267 250 246 247 255 256 260 264 267 259 253 257 258 260 261 264 266 274 272 275 278 280 285 296 290 267 274 273 278 285 288 291 296 297 nan nan nan nan nan nan nan nan nan
266 266 253 244 247 254 258 266 263 266 267 265 256 273 271 261 264 269 275 278 277 285 286 293 297 280 285 274 277 287 287 292 291 289 297 nan nan nan nan nan nan nan nan
253 257 257 262 259 248 249 264 266 267 270 266 265 262 271 273 269 270 272 270 270 283 286 278 281 283 280 285 280 277 279 287 297 nan 284 nan nan nan nan nan nan nan nan
248 254 254 244 252 253 249 262 272 269 260 270 277 273 273 270 277 277 274 277 nan nan nan 279 280 277 282 nan nan nan nan nan nan nan nan nan nan nan nan nan nan nan nan
246 252 252 257 253 256 256 266 272 267 266 265 273 275 273 280 278 281 286 288 283 274 nan nan nan nan nan nan nan nan nan nan nan nan nan nan nan nan nan nan nan nan nan
250 256 251 250 252 254 262 267 268 264 268 264 267 271 276 282 275 272 282 282 283 nan nan nan nan nan nan nan nan nan nan nan nan nan nan nan nan nan nan nan nan nan nan
244 250 259 261 260 251 257 256 272 266 261 270 266 267 254 276 273 271 278 283 283 nan nan nan nan nan nan nan nan nan nan nan nan nan nan nan nan nan nan nan nan nan nan